THORAD DELTA 1 DEB, 8173

Orbit data source: Space-Track

THORAD DELTA 1 DEB, 8173 is space debris in SSO originally from a launch on Fri, 15 Nov 1974 UTC launched from the Air Force Western Test Range (AFWTR). Debris objects in space refer to the collection of defunct objects orbiting the Earth. Examples of debris include non-operational satellites, rocket bodies, and fragments generated from explosions, collisions, or faulty payload assembly.

Loading next visibility...
Identifier
8173, 1974-089AP
Orbit
SSO
Country
Flag of USUS
Related business
Manufacturer
Unknown
Mission
Spacecraft
Bus & Motor
Unknown
Mass
Unknown
Launch date (UTC)
1974-11-15 (51 years ago)
Launch vehicle
Unknown
Launch site
Air Force Western Test Range (AFWTR)
Object type
Payload
Rocket body
Debris
Shape & HBR
Unknown shape, 0.1 m
Radar Cross Section
Small (<0.1 m²)

Expand to show TLE details & history
Last TLE update: 2 days ago

TLE from 2 days ago
0 THORAD DELTA 1 DEB
1 08173U 74089AP  25309.18574493  .00000053  00000-0  62216-3 0  9995
2 08173 101.9657 285.2582 0107817 193.2383 184.9097 12.51846798326960
Epoch: 2025-11-05T04:27Z
TLE epoch observation values (Epoch: 2025-11-05T04:27:28.361Z)
Latitude
17.63141°
Longitude
169.88461°
Altitude
1,542.97 km
Speed
7.058 km/s
True Right ascension
18h 45m 39s
True Declination
17° 32' 32"
Sunlit
Object was in daylight at epoch
Visualization orbit readout
Latitude
Unknown
Longitude
Unknown
Altitude
Unknown
Speed
Unknown
Apparent Right ascension
Unknown
Apparent Declination
Unknown
Sunlit
N/A
Visualization observer readout
Local Sidereal Time
16:33:05
Azimuth
Unknown
Elevation
Unknown
Doppler factor
Unknown
Orbital elements
Apogee altitude
1,538.784 km
Perigee altitude
1,369.889 km
Semi-major axis
7,832.474 km
Eccentricity
0.01078
Inclination
101.9657°
RAAN
285.2582°
Arg. of periapsis
193.2383°
True anomaly
184.80536°
Mean anomaly
184.9097°
Eccentric anomaly
184.85739°
Mean motion
3.13108 °/min
Orbital period
114.98 mins
BSTAR
0.00062216
Loading maneuver chart data...
Computing Atmospheric mass density...

Documentation

Showing up to 5 results
|